Temperature
18 18 18 18 17 17 17 17 17 17 17 17 17 17 17 17 17 17 17 17 17 17 17 17 17 17 16 16 16 16 16 16 16 16 16 15 15 15 15 15 15 15 15
18 18 18 18 17 17 17 17 17 17 17 17 17 17 17 17 17 17 17 17 17 17 17 17 17 17 16 16 16 16 16 16 16 16 15 15 15 15 15 15 15 15 15
18 18 18 17 17 17 17 17 17 17 17 17 17 17 17 17 17 17 17 17 17 17 17 17 17 16 16 16 16 16 16 16 16 16 15 15 15 15 15 15 15 15 15
18 18 17 17 17 17 17 17 17 17 17 17 17 17 17 17 17 17 17 17 17 16 16 16 16 16 16 16 16 16 16 16 16 16 16 15 15 15 15 15 15 15 15
18 18 17 17 17 17 17 17 17 17 17 17 17 17 17 17 17 17 17 17 17 16 16 16 16 16 16 16 16 16 16 16 16 16 16 15 15 15 15 15 15 15 15
17 17 17 17 17 17 17 17 17 17 17 17 17 17 17 17 17 17 17 17 17 16 16 16 16 16 16 16 16 16 16 16 16 16 15 15 15 15 15 15 15 15 15
17 17 17 17 17 17 17 17 17 17 17 17 17 17 17 17 17 17 17 17 17 17 16 16 16 16 16 16 16 16 16 16 16 15 15 15 15 15 15 15 15 15 15
17 17 17 17 17 17 17 17 17 17 17 17 17 17 17 17 17 17 17 17 17 17 17 16 16 16 16 16 16 16 16 16 15 15 15 15 15 15 15 15 15 15 15
17 17 17 17 17 17 17 17 17 17 17 17 17 16 16 16 17 17 17 17 17 17 17 16 16 16 16 16 16 16 16 15 15 15 15 15 15 15 15 15 15 15 14
17 17 17 17 17 17 17 17 17 17 16 17 17 17 16 16 16 16 17 17 17 17 17 16 16 16 16 16 16 16 16 16 15 15 15 15 15 15 15 15 14 14 14
17 17 17 17 17 17 17 17 17 16 16 16 16 16 16 16 16 16 16 16 16 16 16 16 16 16 16 16 16 16 16 15 15 15 15 15 15 15 14 14 14 14 14
17 17 17 17 17 17 17 17 17 16 16 16 16 16 16 16 16 16 16 16 16 16 16 16 16 16 16 16 16 16 15 15 15 15 15 15 15 15 14 14 14 14 14
17 17 17 17 17 17 17 17 16 16 16 16 16 16 16 16 16 16 16 16 16 16 16 16 16 16 16 16 16 16 15 15 15 15 15 15 15 14 14 14 14 14 13
17 17 17 17 17 17 17 17 17 16 16 16 16 16 16 16 16 16 16 16 15 15 15 15 16 16 16 15 16 15 15 15 15 15 15 15 14 14 14 14 14 13 13
17 17 17 17 17 17 17 17 17 16 16 16 16 16 16 16 16 16 16 16 15 15 15 15 15 15 15 15 15 15 15 15 15 14 14 14 14 14 13 13 13 13 13
17 17 17 17 17 17 17 17 16 16 16 16 16 16 16 16 16 16 16 15 15 15 15 15 15 15 14 15 14 14 14 14 14 14 14 14 13 13 13 13 12 12 12
17 17 17 17 17 17 16 16 16 16 16 16 16 15 15 15 15 15 15 15 15 15 15 15 14 14 14 14 14 14 14 14 14 13 13 13 13 13 12 12 12 12 12
17 17 17 17 16 16 16 16 16 16 16 16 15 15 15 15 15 15 15 15 15 15 15 15 14 14 14 13 13 13 13 13 13 13 13 12 12 12 12 12 12 11 11
17 17 16 16 16 16 16 16 16 16 15 15 15 15 15 15 15 15 15 15 15 15 14 14 14 13 13 13 13 13 13 12 12 12 12 12 12 12 12 11 11 11 11
16 16 16 16 16 16 16 15 15 15 15 15 15 15 15 14 15 15 14 14 14 14 14 14 13 13 13 12 12 12 12 12 12 12 11 11 11 11 11 11 10 10 10
16 16 16 16 16 15 15 15 15 15 15 15 15 15 14 14 14 14 14 14 14 14 13 13 13 12 12 12 12 12 12 11 11 11 11 11 11 10 10 10 10 9 9
16 15 15 15 15 15 15 15 15 14 14 14 14 14 14 14 14 14 14 13 13 13 13 13 13 12 12 12 12 12 11 11 11 10 10 10 10 10 9 9 9 9 9
15 15 15 15 15 15 14 14 14 14 14 14 14 14 13 13 13 13 13 13 13 13 12 12 12 12 12 12 12 11 11 11 11 10 10 9 9 9 9 9 8 8 8
15 15 15 15 14 14 14 14 14 14 14 13 13 13 13 13 13 13 13 13 12 12 12 12 12 12 12 11 11 11 11 10 10 10 10 9 9 8 8 8 8 8 7
15 15 15 14 14 14 14 13 13 13 13 13 13 13 12 12 12 12 12 12 12 12 12 12 11 11 11 11 11 11 10 10 10 9 9 9 9 8 8 8 7 7 7
15 14 14 14 14 13 13 13 13 13 13 12 12 12 12 12 12 12 12 12 12 11 11 11 11 11 11 11 10 10 10 10 10 9 9 9 8 8 7 7 7 7 6
Wind_Speed
3 3 2 2 3 3 3 3 3 3 3 3 3 4 5 6 6 6 6 8 9 9 9 9 9 9 9 9 9 8 9 9 8 8 7 7 7 7 7 6 6 5 5
4 3 2 1 1 2 2 3 3 2 2 2 2 3 3 5 5 6 6 7 9 10 10 10 10 9 10 10 9 9 9 9 9 9 8 8 7 7 7 7 6 6 5
6 5 2 2 2 2 2 2 2 2 1 2 1 2 3 4 4 5 6 6 7 9 10 10 10 10 10 10 10 10 10 9 9 9 9 9 9 8 8 7 7 7 6
8 6 3 3 4 3 3 2 1 1 1 1 1 1 1 3 4 5 5 6 6 7 9 11 11 11 11 11 11 11 11 10 10 10 10 10 10 9 9 8 8 7 7
9 8 5 4 4 3 2 2 1 1 1 1 1 1 1 2 3 5 5 7 7 7 8 9 11 12 12 12 12 12 12 12 12 11 11 11 10 10 10 9 9 8 8
10 8 6 5 5 3 2 2 2 1 1 1 0 0 1 2 2 3 5 6 7 8 9 9 9 10 12 13 13 13 13 13 12 12 12 12 12 11 11 10 10 9 8
9 8 5 5 5 4 4 3 2 2 1 1 1 1 2 1 2 3 4 4 6 8 9 9 9 9 9 12 14 14 14 14 14 13 13 13 13 12 12 11 11 10 9
8 8 6 5 5 4 4 3 3 2 1 2 2 1 1 3 2 2 3 4 5 5 6 9 9 10 10 10 12 14 15 14 14 14 14 14 14 13 13 12 12 11 11
8 7 8 6 5 5 5 4 4 4 3 2 2 3 2 3 2 2 1 2 3 3 4 6 8 9 10 10 11 12 14 14 13 13 13 13 14 14 13 12 12 11 10
7 8 7 7 6 4 5 5 4 3 4 3 2 2 2 3 2 2 2 1 2 3 3 4 6 8 9 9 10 11 13 12 12 12 11 12 12 13 13 12 11 11 10
5 7 7 6 5 5 5 5 4 4 4 4 4 2 2 2 3 3 3 2 1 2 3 3 4 5 6 8 8 10 11 12 12 12 11 11 11 12 12 12 11 10 10
3 4 5 5 5 5 5 5 5 6 5 5 4 3 3 3 4 4 5 4 3 2 2 2 3 4 4 6 7 8 10 10 11 11 10 10 10 10 10 10 10 9 9
3 4 4 4 4 5 5 5 5 6 6 6 6 5 5 5 3 4 4 4 3 3 2 1 2 3 4 4 6 8 7 7 8 9 9 9 9 9 9 8 8 7 8
3 3 3 4 4 5 5 4 4 5 4 5 6 5 4 5 4 4 4 3 3 3 3 3 1 1 2 2 4 5 4 6 7 8 8 8 8 8 8 8 8 7 7
2 2 2 3 3 3 3 3 3 3 3 4 4 4 4 4 4 5 4 5 4 4 5 3 2 1 1 2 3 4 5 6 7 7 8 8 8 8 8 8 8 8 8
2 2 2 2 2 2 2 2 2 2 3 3 2 3 3 3 3 3 4 4 4 5 4 2 2 1 1 1 2 4 4 5 6 8 8 8 8 9 9 9 8 8 8
3 3 3 3 2 2 2 2 2 2 2 2 2 2 3 2 2 2 3 3 3 4 4 2 1 0 1 1 3 3 3 3 4 6 8 8 8 8 9 9 9 9 9
2 2 2 2 2 2 2 2 2 2 2 2 2 2 2 2 2 2 2 3 3 4 4 4 1 1 0 1 3 3 3 3 4 5 7 8 9 9 9 9 9 9 9
2 2 2 2 2 2 2 1 1 1 1 1 1 1 1 1 1 1 1 2 2 2 3 3 2 1 0 1 2 3 3 3 4 4 6 7 8 8 9 9 9 9 9
2 2 2 2 2 2 2 2 2 1 1 1 1 0 1 0 1 1 1 1 1 2 2 2 2 1 0 1 2 2 2 1 2 3 4 5 6 7 7 8 8 8 9
2 2 2 2 2 2 2 2 2 2 1 1 2 2 1 1 1 1 1 1 2 2 2 2 2 1 1 2 2 2 2 2 2 2 2 3 4 4 5 6 6 7 8
3 3 3 3 3 2 3 4 3 2 2 2 2 2 2 2 2 3 3 2 3 3 3 2 2 2 2 2 2 3 3 2 1 1 2 2 3 2 3 5 7 8 9
3 3 3 3 3 3 4 4 5 3 3 2 1 2 2 3 3 2 3 4 3 3 3 3 3 3 3 3 4 4 3 3 2 2 3 2 1 2 2 3 7 8 9
3 3 3 3 2 2 3 4 4 3 3 2 2 2 2 2 2 2 3 3 3 3 2 1 2 2 2 3 4 4 4 4 3 2 2 2 1 1 1 2 5 7 8
3 3 3 3 2 2 3 4 4 3 2 2 2 2 2 2 3 4 3 3 3 3 5 5 5 4 4 5 6 5 5 4 3 2 1 2 2 1 1 1 3 5 7
2 3 3 2 2 1 2 3 3 2 2 1 2 2 2 2 3 3 3 3 2 1 2 4 4 5 4 4 4 4 5 4 3 2 2 3 2 2 2 1 1 2 4
Wind_Direction
138 123 108 95 98 107 110 100 91 86 85 96 125 145 156 165 170 177 181 187 187 185 183 181 181 181 179 180 181 181 181 178 176 176 176 174 171 170 170 167 168 168 167
163 153 146 132 129 137 136 122 110 109 102 118 136 151 163 170 180 185 191 199 202 198 196 196 195 194 194 194 194 192 194 192 189 189 188 187 186 185 188 186 185 189 191
179 173 172 191 190 169 145 121 103 102 108 123 135 158 170 177 187 198 201 205 209 209 207 207 207 206 206 205 205 205 204 203 198 195 197 198 199 197 199 197 197 199 199
191 183 189 211 198 171 153 143 126 108 115 139 162 190 181 189 198 204 206 212 215 219 219 216 215 215 215 214 212 213 210 208 207 206 205 204 203 201 202 202 204 205 207
197 190 196 207 191 171 161 170 152 155 172 187 196 204 216 212 210 212 213 218 220 224 226 228 226 225 223 222 220 220 218 216 215 214 214 212 211 209 210 211 213 215 215
197 191 193 198 183 170 173 166 160 156 174 185 206 344 288 251 230 228 229 227 227 229 231 233 235 236 233 230 227 227 225 223 220 218 218 218 217 216 215 216 216 215 216
196 190 195 190 182 185 192 178 167 164 172 131 90 1 341 301 246 242 235 233 236 235 233 233 234 235 238 237 232 230 229 226 223 221 221 221 221 219 218 217 217 217 218
200 197 191 192 189 186 189 186 173 161 185 165 153 126 331 331 313 252 233 234 241 238 237 237 234 234 234 235 233 232 230 227 225 222 222 223 224 220 219 219 218 216 218
206 202 196 195 192 187 195 198 188 182 197 206 185 164 175 234 294 323 263 242 241 238 244 245 241 241 237 234 233 233 230 228 226 225 220 219 219 219 216 216 214 214 214
206 206 199 197 195 193 197 202 195 194 188 210 214 215 203 177 193 290 311 286 263 254 255 253 249 245 240 232 229 230 226 221 222 222 222 220 217 214 213 214 216 215 210
210 208 202 199 197 198 202 204 198 200 202 206 204 198 207 212 206 220 262 280 292 269 260 259 257 254 243 233 232 233 226 223 223 223 223 220 216 213 211 211 211 212 210
213 212 205 202 203 201 205 208 207 207 212 215 215 204 195 199 205 208 235 254 267 276 269 264 263 256 245 233 232 233 225 218 215 213 215 216 214 210 208 207 208 209 206
220 221 206 202 208 209 210 209 212 216 213 217 223 225 221 226 211 204 218 242 256 269 273 272 265 255 245 231 225 220 212 201 197 197 198 201 199 199 200 197 195 197 199
219 217 206 208 214 215 215 210 219 225 221 225 233 229 230 235 222 216 208 209 248 264 255 260 297 273 244 210 194 184 180 182 182 179 181 183 183 182 182 178 179 178 178
208 198 194 204 214 211 209 201 217 229 225 231 237 234 236 241 231 228 217 206 212 247 262 248 254 294 138 139 158 159 164 167 173 174 175 176 173 169 166 162 162 163 163
196 187 199 208 214 210 201 194 214 225 217 237 245 247 252 254 240 229 223 222 219 223 247 248 238 280 90 111 125 151 161 164 170 172 174 174 170 167 162 159 158 154 151
190 191 199 202 206 200 187 186 212 208 214 241 251 239 253 250 240 235 223 219 217 212 232 256 244 250 138 132 97 107 128 144 150 162 168 167 162 158 155 155 153 148 144
184 188 184 182 192 189 179 181 206 216 218 236 251 247 264 259 242 238 217 217 216 210 208 225 248 218 193 135 112 107 96 101 113 132 145 146 147 148 149 147 144 141 138
159 160 157 163 166 159 156 171 183 190 200 234 251 256 281 268 265 256 220 212 202 193 188 192 221 219 203 137 116 106 100 94 104 117 130 139 143 145 146 144 142 141 137
146 151 148 151 146 139 129 125 117 115 100 52 5 335 313 255 252 256 229 197 160 154 152 162 173 178 171 130 139 144 125 107 114 108 116 127 138 146 148 146 147 146 143
128 124 120 113 112 116 118 121 123 116 89 53 29 16 9 49 78 120 159 168 154 152 153 158 167 155 166 163 181 179 168 136 100 119 130 119 124 131 140 150 152 151 148
98 98 101 110 104 103 102 105 108 108 95 74 37 11 11 26 44 66 92 109 135 158 170 170 180 193 216 204 185 174 161 155 171 156 141 122 123 134 137 148 154 155 152
99 97 96 103 107 101 98 95 94 99 88 71 45 24 22 26 38 54 68 72 75 101 151 182 189 212 214 208 181 172 171 165 171 155 144 145 139 147 135 142 150 153 153
105 97 88 92 97 94 99 98 92 93 80 56 35 25 24 10 36 61 74 67 54 47 63 137 184 205 189 172 171 169 159 139 106 112 150 163 168 165 132 126 143 149 152
101 93 87 88 95 93 109 113 99 96 82 49 32 39 50 38 40 60 80 76 54 36 58 77 91 99 110 125 135 131 134 140 146 155 158 156 149 141 116 103 131 144 153
110 98 77 69 78 71 83 101 104 108 90 56 34 29 45 64 48 65 95 102 84 27 50 58 62 65 79 97 124 151 163 162 154 164 175 163 146 137 127 88 118 136 146
Height
1574 1575 1576 1577 1578 1579 1580 1581 1583 1584 1584 1585 1586 1587 1587 1588 1588 1589 1589 1590 1590 1591 1591 1592 1593 1593 1594 1595 1596 1597 1597 1598 1599 1599 1600 1601 1601 1602 1602 1603 1604 1604 1605
1575 1576 1577 1578 1579 1580 1581 1582 1583 1584 1585 1586 1587 1587 1588 1588 1589 1589 1590 1590 1590 1591 1591 1592 1593 1593 1594 1595 1595 1596 1597 1598 1598 1599 1600 1600 1601 1602 1602 1603 1603 1604 1604
1575 1576 1577 1579 1580 1581 1582 1583 1584 1585 1585 1586 1587 1587 1588 1589 1589 1589 1590 1590 1591 1591 1591 1592 1592 1593 1594 1594 1595 1595 1596 1597 1597 1598 1599 1599 1600 1601 1601 1602 1602 1603 1603
1575 1576 1577 1578 1580 1580 1581 1582 1583 1584 1585 1586 1587 1587 1588 1588 1589 1589 1589 1590 1590 1591 1591 1591 1592 1592 1593 1593 1594 1594 1595 1596 1596 1597 1598 1598 1599 1600 1600 1601 1601 1602 1602
1575 1576 1577 1578 1579 1580 1581 1582 1583 1584 1585 1585 1586 1587 1587 1588 1588 1588 1588 1589 1589 1590 1590 1591 1591 1591 1592 1592 1592 1593 1594 1594 1595 1595 1596 1597 1597 1598 1599 1599 1600 1600 1601
1574 1575 1576 1577 1578 1579 1580 1581 1582 1583 1584 1584 1585 1585 1586 1586 1587 1587 1587 1588 1588 1589 1589 1589 1590 1590 1590 1591 1591 1591 1592 1592 1593 1593 1594 1595 1595 1596 1597 1597 1598 1598 1599
1572 1573 1575 1576 1577 1578 1579 1580 1581 1582 1583 1583 1584 1584 1585 1585 1585 1585 1585 1586 1586 1587 1587 1587 1588 1588 1588 1589 1589 1589 1589 1590 1590 1591 1592 1592 1593 1594 1594 1595 1596 1596 1597
1571 1572 1573 1574 1575 1576 1577 1579 1580 1581 1581 1582 1583 1583 1583 1584 1582 1583 1583 1583 1584 1584 1584 1585 1585 1585 1586 1586 1586 1587 1587 1587 1588 1588 1589 1590 1590 1591 1592 1592 1593 1594 1594
1569 1570 1571 1572 1573 1574 1575 1577 1578 1579 1579 1580 1581 1582 1581 1580 1580 1581 1581 1581 1581 1581 1582 1582 1582 1582 1582 1583 1583 1584 1584 1584 1585 1585 1586 1587 1587 1588 1589 1590 1590 1591 1591
1567 1568 1569 1570 1571 1572 1573 1574 1575 1576 1577 1578 1578 1579 1580 1579 1579 1578 1579 1579 1578 1578 1579 1579 1579 1579 1579 1579 1580 1580 1581 1581 1582 1582 1583 1583 1584 1585 1586 1586 1587 1588 1588
1565 1565 1567 1568 1569 1569 1570 1571 1572 1573 1574 1575 1575 1576 1576 1577 1577 1577 1575 1575 1575 1575 1575 1575 1575 1575 1576 1576 1576 1577 1578 1578 1578 1579 1580 1580 1581 1582 1582 1583 1584 1584 1585
1562 1563 1564 1565 1566 1567 1567 1568 1569 1570 1571 1571 1572 1572 1573 1573 1573 1573 1572 1572 1572 1572 1572 1572 1572 1572 1572 1572 1572 1573 1574 1574 1575 1575 1576 1577 1577 1578 1579 1580 1580 1581 1581
1560 1561 1562 1563 1563 1564 1564 1565 1566 1566 1567 1568 1568 1568 1569 1569 1570 1569 1569 1568 1568 1568 1568 1568 1568 1568 1568 1568 1568 1569 1570 1570 1571 1572 1572 1573 1574 1574 1575 1576 1577 1577 1578
1558 1559 1560 1560 1561 1561 1562 1562 1563 1563 1564 1564 1564 1565 1565 1565 1565 1565 1565 1565 1564 1564 1564 1564 1564 1564 1565 1565 1565 1565 1566 1566 1567 1568 1569 1569 1570 1571 1572 1572 1573 1573 1574
1556 1557 1557 1558 1558 1559 1559 1559 1559 1560 1560 1560 1560 1560 1560 1560 1561 1560 1561 1561 1562 1560 1559 1560 1560 1561 1561 1561 1561 1561 1562 1562 1563 1564 1565 1565 1566 1567 1567 1568 1569 1569 1570
1553 1554 1555 1555 1556 1556 1556 1556 1556 1556 1557 1557 1557 1556 1556 1556 1556 1556 1556 1557 1557 1557 1555 1555 1556 1557 1557 1557 1557 1558 1558 1558 1559 1560 1561 1561 1562 1562 1563 1564 1565 1565 1566
1551 1551 1552 1553 1553 1553 1553 1553 1553 1554 1553 1553 1553 1553 1552 1552 1552 1552 1552 1552 1552 1552 1551 1551 1552 1553 1553 1553 1553 1554 1554 1554 1555 1556 1556 1557 1558 1559 1560 1560 1561 1562 1562
1548 1549 1550 1550 1550 1550 1550 1551 1550 1551 1550 1550 1549 1549 1549 1548 1548 1548 1548 1548 1548 1548 1548 1547 1548 1548 1549 1549 1550 1550 1550 1551 1551 1552 1553 1554 1554 1555 1556 1557 1558 1558 1559
1546 1547 1547 1548 1548 1548 1548 1548 1548 1548 1548 1547 1547 1546 1546 1545 1545 1545 1544 1544 1544 1544 1544 1544 1544 1544 1545 1545 1546 1546 1547 1547 1548 1548 1549 1550 1551 1552 1553 1554 1555 1555 1556
1544 1545 1545 1545 1545 1546 1546 1546 1546 1545 1545 1545 1545 1544 1543 1543 1542 1542 1542 1541 1541 1541 1541 1540 1540 1541 1541 1542 1542 1543 1543 1544 1544 1545 1545 1546 1547 1549 1550 1551 1552 1552 1553
1542 1542 1543 1543 1543 1543 1543 1543 1543 1543 1542 1543 1542 1542 1542 1541 1540 1540 1539 1539 1538 1538 1538 1538 1538 1538 1538 1539 1539 1540 1540 1540 1541 1542 1542 1543 1544 1545 1546 1548 1549 1550 1550
1540 1541 1541 1541 1541 1541 1541 1541 1541 1541 1541 1540 1540 1540 1540 1539 1539 1538 1537 1537 1537 1536 1535 1535 1535 1535 1535 1536 1536 1537 1537 1537 1537 1539 1540 1541 1543 1543 1544 1545 1546 1547 1548
1539 1539 1539 1539 1539 1539 1540 1540 1540 1539 1539 1538 1538 1538 1538 1538 1537 1536 1536 1535 1535 1534 1535 1534 1534 1533 1534 1534 1534 1534 1534 1535 1536 1537 1538 1539 1540 1541 1543 1543 1544 1545 1546
1538 1538 1537 1538 1538 1538 1538 1538 1538 1538 1537 1537 1537 1536 1536 1535 1535 1535 1534 1533 1533 1533 1533 1532 1532 1532 1532 1532 1532 1533 1533 1534 1535 1536 1537 1537 1539 1540 1541 1542 1542 1543 1544
1537 1537 1537 1537 1537 1537 1537 1537 1537 1536 1536 1535 1535 1535 1534 1534 1533 1533 1532 1532 1531 1531 1531 1531 1531 1531 1531 1531 1531 1531 1531 1532 1532 1533 1535 1536 1537 1538 1539 1540 1540 1541 1542
1536 1536 1536 1536 1536 1536 1535 1535 1535 1534 1534 1533 1533 1533 1533 1532 1532 1531 1531 1530 1530 1530 1530 1530 1530 1530 1530 1530 1530 1530 1530 1530 1530 1531 1533 1534 1534 1535 1536 1538 1539 1539 1540